Rexburg, ID

9:29 AM MST on February 06, 2016 (GMT -0700)
Rexburg-Madison County

Weather History for KRXE - May, 2013

Change the Weather History Date:

Friday, May 10, 2013

  Actual Average Record
Temperature  
Mean Temperature 58 °F 51 °F  
Max Temperature 77 °F 64 °F 81 °F (2007)
Min Temperature 38 °F 37 °F 26 °F (2008)
Degree Days  
Heating Degree Days 7 14  
Month to date heating degree days 143 157  
Since 1 July heating degree days 7487 7722  
Cooling Degree Days 0 0  
Month to date cooling degree days 0 0  
Year to date cooling degree days 0 0  
Growing Degree Days 6 (Base 50)    
Moisture  
Dew Point 30 °F    
Average Humidity 49    
Maximum Humidity 85    
Minimum Humidity 12    
Precipitation  
Precipitation 0.00 in 0.06 in 0.55 in (1985)
Month to date precipitation 0.20 0.54  
Year to date precipitation 3.21 4.65  
Sea Level Pressure  
Sea Level Pressure 30.18 in    
Wind  
Wind Speed 5 mph (NE)    
Max Wind Speed 17 mph    
Max Gust Speed 22 mph    
Visibility 10 miles    
Events      
T = Trace of Precipitation, MM = Missing Value Source: NWS Daily Summary

Daily Weather History Graph

Daily Weather History Graph

Search for Another Location

Airport or City:

Trip Planner

Search our weather history database for the weather conditions in past years. The results will help you decide how hot, cold, wet, or windy it might be!

Date:

Astronomy

May. 10, 2013 Rise Set
Actual Time 6:06 AM MDT 8:40 PM MDT
Civil Twilight 5:34 AM MDT 9:13 PM MDT
Nautical Twilight 4:53 AM MDT 9:54 PM MDT
Astronomical Twilight 4:07 AM MDT 10:41 PM MDT
Moon 6:33 AM MDT (5/10) 9:34 PM MDT (5/10)
Length of Visible Light 15h 39m
Length of Day
14h 33m
New Moon, 1% of the Moon is Illuminated
May 10
New Moon
May 17
First Quarter
May 24
Full
May 31
Last Quarter
Jun 8
New

Hourly Weather History & Observations

Time (MDT) Temp. Windchill Dew Point Humidity Pressure Visibility Wind Dir Wind Speed Gust Speed Precip Events Conditions
12:53 AM 46.0 °F 42.5 °F 37.0 °F 71% 30.13 in 10.0 mi NE 6.9 mph - N/A   Clear
2:53 AM 45.0 °F 41.8 °F 36.0 °F 71% 30.15 in 10.0 mi East 5.8 mph - N/A   Clear
3:53 AM 39.9 °F - 34.0 °F 79% 30.19 in 10.0 mi Calm Calm - N/A   Clear
4:53 AM 39.9 °F 37.8 °F 35.1 °F 83% 30.19 in 10.0 mi NNE 3.5 mph - N/A   Clear
6:53 AM 37.9 °F 34.4 °F 33.1 °F 83% 30.24 in 10.0 mi NE 4.6 mph - N/A   Clear
7:53 AM 43.0 °F 40.3 °F 36.0 °F 76% 30.23 in 10.0 mi NE 4.6 mph - N/A   Clear
8:53 AM 51.1 °F - 37.9 °F 61% 30.22 in 10.0 mi ENE 3.5 mph - N/A   Scattered Clouds
9:53 AM 59.0 °F - 37.9 °F 46% 30.21 in 10.0 mi NNE 4.6 mph - N/A   Clear
11:53 AM 69.1 °F - 33.1 °F 26% 30.19 in 10.0 mi NE 8.1 mph - N/A   Clear
12:53 PM 73.0 °F - 27.0 °F 18% 30.17 in 10.0 mi NE 10.4 mph 16.1 mph N/A   Clear
1:53 PM 73.9 °F - 18.0 °F 12% 30.16 in 10.0 mi North 8.1 mph 18.4 mph N/A   Partly Cloudy
2:53 PM 75.0 °F - 21.0 °F 13% 30.16 in 10.0 mi ENE 13.8 mph 19.6 mph N/A   Clear
3:53 PM 75.9 °F - 21.9 °F 13% 30.16 in 10.0 mi NE 9.2 mph - N/A   Clear
4:53 PM 75.9 °F - 21.0 °F 13% 30.15 in 10.0 mi Variable 3.5 mph - N/A   Partly Cloudy
5:53 PM 73.9 °F - 21.9 °F 14% 30.15 in 10.0 mi NNE 8.1 mph - N/A   Partly Cloudy
6:53 PM 73.0 °F - 24.1 °F 16% 30.15 in 10.0 mi Calm Calm - N/A   Overcast
7:53 PM 72.0 °F - 27.0 °F 19% 30.16 in 10.0 mi ENE 3.5 mph - N/A   Scattered Clouds
8:53 PM 66.0 °F - 30.9 °F 27% 30.17 in 10.0 mi NNE 3.5 mph - N/A   Clear
9:53 PM 61.0 °F - 30.9 °F 32% 30.19 in 10.0 mi ENE 4.6 mph - N/A   Clear
10:53 PM 55.0 °F - 30.9 °F 40% 30.21 in 10.0 mi ENE 4.6 mph - N/A   Clear
11:53 PM 52.0 °F - 33.1 °F 49% 30.22 in 10.0 mi NE 6.9 mph - N/A   Clear